Regional Weather Roundup
Issued by NWS

Home | Current Version | Previous Version | Graphics & Text | Print | Product List | Glossary On
Versions: 1 2 3 4 5 6 7 8 9 10 11 12 13 14 15 16 17 18 19 20 21 22 23 24 25 26 27 28 29 30 31 32 33 34 35 36 37 38 39 40 41 42 43 44 45 46 47 48 49 50
000
ASUS45 KPSR 021710
RWRAZ

ARIZONA HOURLY REGIONAL WEATHER ROUNDUP
NATIONAL WEATHER SERVICE PHOENIX AZ
1000 AM MST SUN AUG 02 2015

NOTE: FAIR INDICATES FEW OR NO CLOUDS BELOW 12,000 FEET WITH NO
SIGNIFICANT WEATHER AND/OR OBSTRUCTIONS TO VISIBILITY.

AZZ001>003-036-021800-
NORTHWEST ARIZONA

CITY           SKY/WX    TMP DP  RH WIND       PRES   REMARKS
BULLHEAD CITY  SUNNY     93  57  29 S5        29.85S
KINGMAN        SUNNY     87  52  29 CALM      30.03S
$$

AZZ004>008-015-016-018-021800-
NORTH CENTRAL ARIZONA

CITY           SKY/WX    TMP DP  RH WIND       PRES   REMARKS
GRAND CANYON   PTSUNNY   73  55  53 S7        30.24F
WILLIAMS       PTSUNNY   72  54  53 SW9       30.31S
PRESCOTT       MOSUNNY   79  54  41 VRB3      30.14S
FLAGSTAFF      PTSUNNY   72  53  51 SW13      30.28S
PAYSON         SUNNY     79  57  47 VRB5      30.18S
PAGE           LGT RAIN  67  65  93 SW5       30.14R FOG
$$

AZZ009>014-017-021800-
NORTHEAST ARIZONA

CITY           SKY/WX    TMP DP  RH WIND       PRES   REMARKS
WINSLOW        SUNNY     83  56  39 N5        30.12F
SAINT JOHNS    PTSUNNY   75  55  49 CALM      30.20S
SHOW LOW       MOSUNNY   70  55  60 SW9       30.27R
$$

AZZ023-021800-
GREATER PHOENIX AREA

CITY           SKY/WX    TMP DP  RH WIND       PRES   REMARKS
PHOENIX        MOSUNNY   95  63  34 SE7       29.85S
GLENDALE       MOSUNNY   95  61  31 E3        29.87S
DEER VALLEY    SUNNY     94  61  33 VRB5      29.87F
SCOTTSDALE     SUNNY     94  61  33 S7        29.89S
MESA-FALCON    MOSUNNY   95  59  30 S12       29.87S
MESA-GATEWAY   MOSUNNY   93  61  33 SE8       29.90S
CHANDLER       SUNNY     95  61  31 S9        29.87S
$$

AZZ027-028-021800-
SOUTHWEST MARICOPA COUNTY AND PINAL COUNTY

CITY           SKY/WX    TMP DP  RH WIND       PRES   REMARKS
CASA GRANDE    SUNNY     93  63  36 CALM      29.88S
GILA BEND      SUNNY     98  55  23 SW5       29.83S
$$

AZZ503-504-507>509-021800-
SOUTHEAST ARIZONA

CITY           SKY/WX    TMP DP  RH WIND       PRES   REMARKS
TUCSON         SUNNY     89  63  41 SE7       30.00S
DAVIS-MONTHAN  SUNNY     89  60  36 S6        29.98F
RYAN FIELD     SUNNY     91  61  35 CALM      29.98F
NOGALES        SUNNY     84  60  44 CALM      30.09S
SIERRA VISTA   SUNNY     81  62  51 N6        30.15F
DOUGLAS          N/A    N/A N/A N/A MISG      30.11S
SAFFORD        MOSUNNY   85  61  44 VRB6      30.03S
$$

AZZ020-021-025-026-031-021800-
SOUTHWEST ARIZONA

CITY           SKY/WX    TMP DP  RH WIND       PRES   REMARKS
YUMA           SUNNY     99  57  24 S6        29.79S
$$

CAZ031-033-041-043-047-048-061-021800-
SOUTHERN CALIFORNIA

CITY           SKY/WX    TMP DP  RH WIND       PRES   REMARKS
DOWNTOWN L.A.  MOSUNNY   75  64  68 CALM      29.92S
L.A. AIRPORT   CLOUDY    72  65  78 S5        29.93S
SAN DIEGO      CLOUDY    71  63  75 N6        29.95R
BURBANK        SUNNY     76  63  64 CALM      29.92F
ONTARIO        MOSUNNY   76  63  64 S5        29.93F
RIVERSIDE      SUNNY     77  63  61 VRB3      29.92F
PALM SPRINGS   SUNNY     99  52  20 CALM      29.82S
EL CENTRO NAS  SUNNY     99  48  17 W5        29.78F
IMPERIAL       SUNNY     96  51  21 CALM      29.77S
BLYTHE         SUNNY     99  58  25 CALM      29.81S
NEEDLES        SUNNY     95  54  25 CALM      29.86S
$$

NVZ020-UTZ003-021800-
SOUTHERN NEVADA-UTAH

CITY           SKY/WX    TMP DP  RH WIND       PRES   REMARKS
LAS VEGAS      MOSUNNY   89  53  29 VRB3      29.91S
SALT LAKE CITY PTSUNNY   86  40  19 S5        30.00F
$$

NMZ009-TXZ055-021800-
NEW MEXICO-WEST TEXAS

CITY           SKY/WX    TMP DP  RH WIND       PRES   REMARKS
ALBUQUERQUE    MOSUNNY   77  55  46 W6        30.19F
EL PASO        MOSUNNY   86  56  35 CALM      30.07S
$$


........................KEY........................
SKY/WX - SKY CONDITION/WEATHER
TMP    - TEMPERATURE IN FAHRENHEIT
DP     - DEW POINT IN FAHRENHEIT
RH     - RELATIVE HUMIDITY IN PERCENT
WIND   - DIRECTION AND SPEED IN MILES PER HOUR (MPH)
VRB    - VARIABLE WIND DIRECTION
PRES   - MEAN SEA LEVEL PRESSURE IN INCHES OF MERCURY
         F - FALLING PRESSURE   R - RISING PRESSURE
         S - STEADY PRESSURE
VSB    - VISIBILITY IN MILES
HX     - HEAT INDEX IN FAHRENHEIT
WCI    - WIND CHILL INDEX IN FAHRENHEIT
TC     - TEMPERATURE IN CELSIUS WHICH IS ALSO KNOWN AS
         TEMPERATURE IN CENTIGRADE
AFB    - AIR FORCE BASE
         LUKE AFB IS LUKE AIR FORCE BASE
         DAVIS-MONTHAN IS DAVIS-MONTHAN AIR FORCE BASE
NAS    - NAVAL AIR STATION
         EL CENTRO NAS IS EL CENTRO NAVAL AIR STATION
N/A    - NOT AVAILABLE



USA.gov is the U.S. government's official web portal to all federal, state and local government web resources and services.